GW7ERI-1 Weather Reports


Display with metric or nautical units.
time (UTC)temp
F
wind
direction
speed
MPH
gust
MPH
rain 1hr
in
rain 24hr
in
rain mn
in
humidity
%
barometer
mb
20190723151901 88 174 0.0 2.0 0.00 0.00 0.00 42 1014.1
20190723151001 87 168 1.0 3.0 0.00 0.00 0.00 42 1014.1
20190723150101 88 171 2.0 7.0 0.00 0.00 0.00 41 1014.2
20190723145201 88 175 2.0 7.0 0.00 0.00 0.00 40 1014.1
20190723144301 89 184 1.0 7.0 0.00 0.00 0.00 41 1014.1
20190723143401 89 177 2.0 5.0 0.00 0.00 0.00 40 1014.1
20190723142501 89 172 2.0 5.0 0.00 0.00 0.00 40 1014.3
20190723141602 90 177 2.0 6.0 0.00 0.00 0.00 40 1014.5
20190723140701 91 186 2.0 5.0 0.00 0.00 0.00 41 1014.5
20190723135801 90 174 2.0 5.0 0.00 0.00 0.00 43 1014.5
20190723134901 90 194 2.0 5.0 0.00 0.00 0.00 44 1014.5
20190723134001 89 182 1.0 4.0 0.00 0.00 0.00 45 1014.7
20190723133101 88 177 2.0 5.0 0.00 0.00 0.00 47 1014.9
20190723132201 87 130 1.0 5.0 0.00 0.00 0.00 49 1015.3
20190723130401 86 48 1.0 5.0 0.00 0.00 0.00 51 1015.5
20190723125501 86 56 2.0 8.0 0.00 0.00 0.00 53 1015.5
20190723124601 85 53 1.0 5.0 0.00 0.00 0.00 53 1015.6
20190723123701 84 50 2.0 6.0 0.00 0.00 0.00 55 1015.8
20190723122801 85 44 1.0 5.0 0.00 0.00 0.00 55 1015.8
20190723121900 84 54 1.0 6.0 0.00 0.00 0.00 55 1016.0
20190723121001 83 62 2.0 7.0 0.00 0.00 0.00 59 1016.2
20190723120100 83 52 2.0 6.0 0.00 0.00 0.00 61 1016.2
20190723115200 82 40 2.0 5.0 0.00 0.00 0.00 62 1016.5
20190723114301 81 36 2.0 5.0 0.00 0.00 0.00 63 1016.6
20190723113400 81 31 2.0 5.0 0.00 0.00 0.00 64 1016.7
20190723112500 80 38 1.0 4.0 0.00 0.00 0.00 64 1016.9
20190723111600 80 22 1.0 6.0 0.00 0.00 0.00 66 1017.0
20190723110700 78 57 2.0 6.0 0.00 0.00 0.00 67 1017.2
20190723104900 79 44 1.0 5.0 0.00 0.00 0.00 66 1017.3
20190723104000 78 46 2.0 6.0 0.00 0.00 0.00 66 1017.5
20190723103100 78 41 1.0 5.0 0.00 0.00 0.00 67 1017.6
20190723102200 77 51 1.0 4.0 0.00 0.00 0.00 67 1017.7
20190723101301 77 68 1.0 5.0 0.00 0.00 0.00 68 1017.8
20190723100400 76 52 1.0 4.0 0.00 0.00 0.00 69 1017.9
20190723094600 74 62 2.0 6.0 0.00 0.00 0.00 76 1017.9
20190723093700 73 67 1.0 5.0 0.00 0.00 0.00 78 1017.9
20190723092800 73 64 1.0 6.0 0.00 0.00 0.00 79 1017.8
20190723091900 73 41 1.0 5.0 0.00 0.00 0.00 82 1017.9
20190723091000 72 56 2.0 6.0 0.00 0.00 0.00 82 1017.8
20190723090100 71 59 2.0 5.0 0.00 0.00 0.00 82 1017.9
20190723085200 71 61 1.0 5.0 0.00 0.00 0.00 83 1018.1
20190723084300 71 63 1.0 5.0 0.00 0.00 0.00 86 1018.3
20190723083400 69 67 2.0 5.0 0.00 0.00 0.00 87 1018.3
20190723082500 69 55 1.0 4.0 0.00 0.00 0.00 89 1018.4
20190723081600 68 57 1.0 5.0 0.00 0.00 0.00 92 1018.5
20190723080700 67 60 1.0 5.0 0.00 0.00 0.00 92 1018.4
20190723074900 66 43 1.0 4.0 0.00 0.00 0.00 96 1018.7
20190723074000 65 70 1.0 4.0 0.00 0.00 0.00 96 1018.8
20190723073100 64 77 0.0 4.0 0.00 0.00 0.00 96 1018.9
20190723072200 64 47 0.0 3.0 0.00 0.00 0.00 96 1019.0
20190723071300 64 39 0.0 3.0 0.00 0.00 0.00 96 1019.1
20190723070400 64 0 0.0 0.0 0.00 0.00 0.00 96 1019.0
20190723065459 63 68 0.0 1.0 0.00 0.00 0.00 96 1019.1
20190723064559 63 0 0.0 0.0 0.00 0.00 0.00 96 1019.3
20190723063659 63 0 0.0 0.0 0.00 0.00 0.00 96 1019.4
20190723062759 63 0 0.0 0.0 0.00 0.00 0.00 96 1019.5
20190723061859 63 0 0.0 0.0 0.00 0.00 0.00 96 1019.4
20190723061000 63 0 0.0 0.0 0.00 0.00 0.00 96 1019.3
20190723060100 62 0 0.0 0.0 0.00 0.00 0.00 96 1019.4
20190723055159 62 0 0.0 0.0 0.00 0.00 0.00 96 1019.5
20190723054300 62 0 0.0 0.0 0.00 0.00 0.00 96 1019.6
20190723053359 62 0 0.0 0.0 0.00 0.00 0.00 96 1019.6
20190723052459 62 0 0.0 0.0 0.00 0.00 0.00 96 1019.8
20190723050659 62 0 0.0 0.0 0.00 0.00 0.00 96 1019.6
20190723045759 62 0 0.0 0.0 0.00 0.00 0.00 96 1019.6
20190723044859 61 0 0.0 0.0 0.00 0.00 0.00 96 1019.7
20190723043959 61 0 0.0 0.0 0.00 0.00 0.00 96 1019.7
20190723043059 61 0 0.0 0.0 0.00 0.00 0.00 96 1019.6
20190723042159 61 0 0.0 0.0 0.00 0.00 0.00 96 1019.6
20190723040359 61 0 0.0 0.0 0.00 0.00 0.00 96 1019.7
20190723035459 61 0 0.0 0.0 0.00 0.00 0.00 95 1019.8
20190723034559 61 0 0.0 0.0 0.00 0.00 0.00 95 1019.9
20190723033659 61 0 0.0 0.0 0.00 0.00 0.00 95 1019.9
20190723032759 61 0 0.0 0.0 0.00 0.00 0.00 95 1020.1
20190723030959 62 0 0.0 0.0 0.00 0.00 0.00 95 1020.1
20190723030059 62 0 0.0 0.0 0.00 0.00 0.00 95 1020.2
20190723025159 62 0 0.0 0.0 0.00 0.00 0.00 95 1020.3
20190723024259 63 0 0.0 0.0 0.00 0.00 0.00 95 1020.4
20190723022459 62 318 0.0 1.0 0.00 0.00 0.00 95 1020.5
20190723021559 62 0 0.0 0.0 0.00 0.00 0.00 95 1020.5
20190723020659 62 0 0.0 0.0 0.00 0.00 0.00 95 1020.6
20190723015758 62 0 0.0 0.0 0.00 0.00 0.00 94 1020.7
20190723014858 63 0 0.0 0.0 0.00 0.00 0.00 94 1020.7
20190723013959 63 321 0.0 1.0 0.00 0.00 0.00 94 1020.7
20190723013058 63 322 0.0 2.0 0.00 0.00 0.00 94 1020.8
20190723012159 63 315 0.0 2.0 0.00 0.00 0.00 94 1020.9
20190723011259 63 0 0.0 0.0 0.00 0.00 0.00 94 1020.8
20190723010358 64 0 0.0 0.0 0.00 0.00 0.00 94 1020.8
20190723005458 64 0 0.0 0.0 0.00 0.00 0.00 93 1020.7
20190723004558 64 0 0.0 0.0 0.00 0.00 0.00 93 1020.7
20190723003659 64 0 0.0 0.0 0.00 0.00 0.00 93 1020.8
20190723002758 64 0 0.0 0.0 0.00 0.00 0.00 92 1020.8
20190723001858 64 0 0.0 0.0 0.00 0.00 0.00 92 1020.7
20190723000958 65 0 0.0 0.0 0.00 0.00 0.00 92 1020.7
20190723000058 65 0 0.0 0.0 0.00 0.00 0.00 91 1020.6
20190722235158 66 0 0.0 0.0 0.00 0.00 0.00 91 1020.9
20190722234258 66 0 0.0 0.0 0.00 0.00 0.00 90 1021.0
20190722233358 66 0 0.0 0.0 0.00 0.00 0.00 90 1021.0
20190722232458 67 0 0.0 0.0 0.00 0.00 0.00 90 1021.2
20190722230658 67 0 0.0 0.0 0.00 0.00 0.00 89 1021.4
20190722225758 67 0 0.0 0.0 0.00 0.00 0.00 89 1021.4
20190722224858 66 0 0.0 0.0 0.00 0.00 0.00 89 1021.4
20190722223958 66 211 0.0 1.0 0.00 0.00 0.00 88 1021.5
20190722223058 66 0 0.0 0.0 0.00 0.00 0.00 88 1021.4
20190722222158 66 0 0.0 0.0 0.00 0.00 0.00 89 1021.3
20190722221258 66 0 0.0 0.0 0.00 0.00 0.00 88 1021.4
20190722220358 66 0 0.0 0.0 0.00 0.00 0.00 88 1021.5
20190722215458 66 0 0.0 0.0 0.00 0.00 0.00 88 1021.4
20190722214558 66 0 0.0 0.0 0.00 0.00 0.00 88 1021.5
20190722213658 66 0 0.0 0.0 0.00 0.00 0.00 87 1021.6
20190722212758 66 0 0.0 0.0 0.00 0.00 0.00 86 1021.4
20190722211858 67 0 0.0 0.0 0.00 0.00 0.00 85 1021.4
20190722210958 67 0 0.0 0.0 0.00 0.00 0.00 84 1021.2
20190722210057 68 0 0.0 0.0 0.00 0.00 0.00 83 1021.3
20190722204258 69 0 0.0 0.0 0.00 0.00 0.00 81 1021.2
20190722203357 69 0 0.0 0.0 0.00 0.00 0.00 79 1021.2
20190722202458 70 0 0.0 0.0 0.00 0.00 0.00 78 1021.2
20190722201557 70 0 0.0 0.0 0.00 0.00 0.00 78 1021.2
20190722200657 71 0 0.0 0.0 0.00 0.00 0.00 77 1021.3
20190722195757 71 0 0.0 0.0 0.00 0.00 0.00 77 1021.3
20190722194858 71 280 0.0 2.0 0.00 0.00 0.00 76 1021.3
20190722193957 72 271 0.0 2.0 0.00 0.00 0.00 74 1021.3
20190722193057 73 248 0.0 2.0 0.00 0.00 0.00 72 1021.3
20190722192157 74 237 0.0 1.0 0.00 0.00 0.00 72 1021.3
20190722190357 74 198 0.0 3.0 0.00 0.00 0.00 74 1021.1
20190722185457 75 203 1.0 4.0 0.00 0.00 0.00 74 1021.0
20190722184557 75 209 1.0 4.0 0.00 0.00 0.00 74 1021.1
20190722183657 75 205 1.0 6.0 0.00 0.00 0.00 75 1021.1
20190722182757 75 201 1.0 4.0 0.00 0.00 0.00 74 1021.1
20190722181857 75 222 1.0 4.0 0.00 0.00 0.00 74 1021.1
20190722180957 75 251 0.0 4.0 0.00 0.00 0.00 74 1021.0
20190722175157 74 239 0.0 3.0 0.00 0.00 0.00 75 1021.0
20190722174257 74 224 1.0 6.0 0.00 0.00 0.00 75 1020.9
20190722173357 74 230 0.0 6.0 0.00 0.00 0.00 75 1021.0
20190722172457 75 211 1.0 7.0 0.00 0.00 0.00 75 1021.0
20190722171557 74 215 2.0 7.0 0.00 0.00 0.00 74 1021.1
20190722170657 75 207 1.0 6.0 0.00 0.00 0.00 74 1021.2
20190722165757 75 212 1.0 5.0 0.00 0.00 0.00 74 1021.2
20190722164857 75 206 2.0 7.0 0.00 0.00 0.00 74 1021.1
20190722163957 75 214 1.0 6.0 0.00 0.00 0.00 74 1021.1
20190722163057 75 236 1.0 4.0 0.00 0.00 0.00 73 1021.2
20190722162157 75 244 1.0 5.0 0.00 0.00 0.00 73 1021.3
20190722161257 75 212 2.0 7.0 0.00 0.00 0.00 73 1021.2
20190722160400 76 214 1.0 7.0 0.00 0.00 0.00 72 1021.2
20190722155457 76 220 1.0 7.0 0.00 0.00 0.00 73 1021.2
20190722154557 76 239 3.0 9.0 0.00 0.00 0.00 71 1021.1
20190722153657 76 228 2.0 7.0 0.00 0.00 0.00 72 1021.2
20190722152756 76 223 1.0 7.0 0.00 0.00 0.00 73 1021.2